Regional Weather Roundup
Issued by NWS Charleston, SC

Current Version | Previous Version | Text Only | Print | Product List | Glossary Off
Versions: 1 2 3 4 5 6 7 8 9 10 11 12 13 14 15 16 17 18 19 20 21 22 23 24 25 26 27 28 29 30 31 32 33 34 35 36 37 38 39 40 41 42 43 44 45 46 47 48 49 50

000
ASUS42 KCHS 270413
RWRCHS

REGIONAL WEATHER ROUNDUP
NATIONAL WEATHER SERVICE CHARLESTON SC
1200 AM EDT FRI MAY 27 2016

NOTE: "FAIR" INDICATES FEW OR NO CLOUDS BELOW 12,000 FEET WITH NO
SIGNIFICANT WEATHER AND/OR OBSTRUCTIONS TO VISIBILITY.

NOT ALL STATIONS ARE QUALITY CONTROLLED. USE DATA WITH CAUTION...
ESPECIALLY DEWPOINT OBSERVATIONS.

SCZ027-030-031-034>040-042>050-270500-
...SOUTHEAST SOUTH CAROLINA...

CITY           SKY/WX    TMP DP  RH WIND       PRES   REMARKS
N CHARLESTON   PTCLDY    70  63  78 S6        30.14F
WATERFRONT PRK   N/A     75  66  73 S7        30.12S
MOUNT PLEASANT FAIR      66  64  94 CALM      30.14F
JOHNS ISLAND   FAIR      75  63  64 SE6       30.14F
PINOPOLIS        N/A     73  64  73 CALM      30.07F
MONCKS CORNER  FAIR      63  59  88 CALM      30.14F
SUMMERVILLE    FAIR      66  63  88 CALM      30.15F
BEAUFORT MCAS  CLEAR     70  65  84 CALM      30.14F
BEAUFORT ARPT  FAIR      72  61  68 CALM      30.14F
HILTON HEAD IS CLEAR     73  63  68 SE5       30.15F
WALTERBORO     CLEAR     70  63  78 CALM      30.16S
ALLENDALE      FAIR      70  61  73 SE5       30.13F

...SOUTHERN MIDLANDS AND PEE DEE...

CITY           SKY/WX    TMP DP  RH WIND       PRES   REMARKS
GEORGETOWN     FAIR      64  61  88 SE3       30.16F
KINGSTREE      FAIR      68  59  73 SE3       30.15F
ORANGEBURG     CLEAR     70  59  68 S5        30.15S
BARNWELL       FAIR      73  61  64 SE6       30.14S
AIKEN          FAIR      72  55  56 S8        30.16S
MANNING        FAIR      72  61  68 S3        30.15S
COLUMBIA       PTCLDY    76  58  53 S9        30.11S
SUMTER         CLEAR     72  58  61 S6        30.11F
FLORENCE       CLEAR     72  60  66 S7        30.14F
MYRTLE BEACH   CLEAR     75  61  60 S9        30.17F
N MYRTLE BEACH CLEAR     74  64  71 S7        30.15F

$$

GAZ063-065-086>088-099>101-113>116-118-119-134>141-150-270500-
...SOUTHEAST GEORGIA...

CITY           SKY/WX    TMP DP  RH WIND       PRES   REMARKS
SAVANNAH ARPT  CLEAR     68  63  84 CALM      30.15S
HUNTER AAF     CLEAR     70  65  85 CALM      30.12F
FORT STEWART   CLEAR     66  61  84 CALM      30.12F
STATESBORO     CLEAR     71  64  76 SE5       30.13F
SYLVANIA       CLEAR     73  63  72 S3        30.14F
CLAXTON        FAIR      65  61  86 CALM      30.13F

...CSRA...CENTRAL AND FAR SOUTHEAST GEORGIA...

CITY           SKY/WX    TMP DP  RH WIND       PRES   REMARKS
THOMSON        CLEAR     77  67  70 SE3       30.15S
AUGUSTA-BUSH   CLOUDY    74  58  57 SE13      30.10F
AUGUSTA-DANIEL PTCLDY    77  57  50 S9G18     30.12F
SWAINSBORO     FAIR      73  55  53 SE9       30.13F
VIDALIA        CLEAR     72  59  64 S3        30.13F
EASTMAN        FAIR      74  57  54 S5        30.13S
HAZLEHURST     FAIR      73  58  58 CALM      30.12S
ALMA           CLEAR     70  61  73 SE5       30.12F
WAYCROSS       CLEAR     70  62  77 CALM      30.13S
JESUP          FAIR      63  59  88 CALM      30.14F
BAXLEY         FAIR      72  61  68 SE3       30.12F
BRUNSWICK      CLEAR     68  64  88 CALM      30.15S
SAINT SIMONS   CLEAR     74  59  59 E7        30.14S

$$

SCZ027-028-034-036>038-045-046-048>050-GAZ119-141-270500-
...LAKE AND SUPPLEMENTAL COASTAL OBSERVATIONS...

STATION/POSITION TIME  TEMP    WIND        PRES    WAVE   SWELL
                       AIR SEA DIR/SP/G            HT/PER HT/PER/DIR
                 (UTC) (F)     (DEG/KT/KT) (MB)    (FT/S) (FT/S/D)
WINYAH BAY       0245   75     160/  6     1020.0
LAKE MURRAY      0300   78     170/ 11/ 13 1019.0S
ACE BASIN NERRS  NOT AVBL
FORT PULASKI     0306      77              1021.2R
SAPELO ISLAND    0300   72     120/  3     1021.0R

$$

ANZ835-935-AMZ111-154-330-350-352-354-370-450-454-472-270500-
...C-MAN AND BUOY OBSERVATIONS...

STATION/POSITION TIME  TEMP    WIND        PRES    WAVE   SWELL
                       AIR SEA DIR/SP/G            HT/PER HT/PER/DIR
                 (UTC) (F)     (DEG/KT/KT) (MB)    (FT/S) (FT/S/D)
BUOY 41004       0350   78 77  140/ 10/ 12 1020.8S   2/ 8   2/ 8
BUOY 41008       0350   77 76  130/ 10/ 12 1020.5F   2/ 3   2/120/ 7
FOLLY BEACH CMAN 0400   77     150/ 10/ 11 1020.8F
CAPERS NEARSHORE 0308   77 77  170/ 10/ 12 1020.9R
FRIPP NEARSHORE  0308   77 77  150/ 12/ 14 1020.4R


STATION/POSITION TIME  TEMP    WIND        PRES    WAVE   SWELL
                       AIR SEA DIR/SP/G            HT/PER HT/PER/DIR
                 (UTC) (F)     (DEG/KT/KT) (MB)    (FT/S) (FT/S/D)
5E ST. MARYS GA  0401      78                N/A     3/ 4
FRYING PAN BUOY  0300   78 77  140/ 10/ 12 1021.4R
BUOY 41025       0350   77 71  170/ 12/ 14 1021.6S   2/ 7   2/100/ 7
CAPE LOOKOUT NC  0300   73     200/  6/  6 1021.6R
BUOY 41002       0350   76 78   80/ 12/ 16 1020.4F   3/ 5   2/ 80/ 8
BUOY 41010       0320   76 78   80/ 12/ 16 1018.8R
ST AUGUSTINE FL  0400   76 80   90/ 14/ 16 1020.5F


$$




USA.gov is the U.S. government's official web portal to all federal, state and local government web resources and services.